Cuevas Classic - OPEN LOFT G1 G2 ONLY

Station: INVENTORY - T Race

Distance: 1 Miles

Release: 08-Jun-2021 18:00

Weather Release:    Arrival:

Wind at Release:     Wind at Arrival:

Temp at Release: °    Temp at Arrival: °

Lofts: 285

Birds: 1250

Clocked: 787

Good Luck to Everyone!
Drops Pos Breeder Pigeon Name Color Sex Ent Arrival Speed To Win Elg PdBrnzSilverGold
1 O And L De Vries - ON 4093-CU21-OL BC H 1 19:25:44.04 20.529 00:00:00 Yes
2 Jojos International - TX 6157-AU21-GJOJ BB H 1 19:26:01.07 20.461 00:00:17 Yes
3 Dropzone/Wildman Loft - IN 0726-AU21-LAMO BBWF H 1 19:26:01.34 20.460 00:00:17 Yes
4 John Gutierrez - NM 21073-AU21-GUTZ SLT H 1 19:26:03.07 20.453 00:00:19 Yes
5 Hassan And Smith Syndicate - CA 0286-AU21-JSRL BC H 1 19:26:06.64 20.439 00:00:23 Yes
6 Transilvania Loft - NV 0364-AU21-CIMP BB H 1 19:26:12.28 20.417 00:00:28 Yes
7 Rottweiler Company Loft - MI 22236-AU21-ARPU BC H 1 19:26:13.20 20.413 00:00:29 Yes
8 Adam Hajduga - IL 2233-AU21-CHIC BB H 1 19:26:30.87 20.343 00:00:47 Yes
9 H & H Jamay Loft - JA 2439-AU21-HCF BB H 1 19:26:34.45 20.329 00:00:51 Yes
10 SouthernLegacyLoft - TX 6130-AU21-GJOJ BB H 1 19:26:41.43 20.302 00:00:58 Yes
10 Hassan And Smith Syndicate - CA 0283-AU21-JSRL BC H 2 19:26:41.56 20.302 00:00:58 Yes
12 Dan & Greg Coury - AZ 1185-AU21-PEGA BC H 1 19:26:48.78 20.273 00:01:05 Yes
13 The X-Loft - IN 0064-AU21-XLOF BCSP H 1 19:26:51.52 20.263 00:01:08 Yes
14 Yendez Loft - TX 0730-AU21-YEND YENDEZ 730 BBWF H 1 19:26:56.34 20.244 00:01:12 Yes
15 Cristos Loft - TX 0638-AU21-DALL BC H 1 19:27:01.60 20.224 00:01:18 Yes
16 H & H Loft - TX 4317-AU21-VK BBWF H 1 19:27:17.44 20.163 00:01:33 Yes
17 Jimenez & Ponce Loft - CA 0063-AU21-FMT RC H 1 19:27:18.67 20.158 00:01:35 Yes
18 Double J Loft Of Tx. - TX 0126-AU21-DOUB 13104 X 19130 BB C 1 19:27:22.01 20.145 00:01:38 Yes
19 Arch Haven Loft - IN 3079-AU21-ARCH BB H 1 19:27:32.30 20.105 00:01:48 Yes
20 Bell / Hilltop - TX 1072-AU21-BELL BB H 1 19:27:32.75 20.104 00:01:49 Yes
21 Lsu Loft - LA 0636-AU21-LSU GRZZ H 1 19:27:38.70 20.081 00:01:55 Yes
22 Cousin Vinny - VA 2005-IF21-SEA BB H 1 19:28:31.02 19.883 00:02:47 Yes
23 Jojos International - TX 6144-AU21-GJOJ BC H 2 19:28:31.31 19.882 00:02:47 Yes
24 John Gutierrez - NM 21086-AU21-GUTZ BB H 2 19:28:32.69 19.877 00:02:49 Yes
25 Bell/Mcanally Loft - TX 1027-AU21-BELL BB H 1 19:28:38.61 19.855 00:02:55 Yes
26 John Gutierrez - NM 21099-AU21-GUTZ BBWF H 3 19:28:49.61 19.814 00:03:06 Yes
27 Hylek Race Team - IN 4934-AU21-VITA Black Widow BB H 1 19:28:54.57 19.795 00:03:11 Yes
28 H & H Loft - TX 4353-AU21-VK BB H 2 19:29:22.16 19.694 00:03:38 Yes
29 Triple T Loft - TX 5360-AU21-ARPU BC H 1 19:29:27.37 19.674 00:03:44 Yes
30 Lsu Loft - LA 0635-AU21-LSU BC H 2 19:29:33.74 19.651 00:03:50 Yes
31 Jimenez & Ponce Loft - CA 0018-AU21-PONC BC H 2 19:29:56.15 19.570 00:04:12 Yes
32 Jojos International - TX 6122-AU21-GJOJ BB H 3 19:30:03.22 19.544 00:04:19 Yes
33 Scorpion Lofts - TX 0519-AU21-DALL BB H 1 19:30:07.54 19.528 00:04:24 Yes
34 Bizblood And Genlla - CA 0028-AU21-MORA BB H 1 19:30:39.41 19.414 00:04:55 Yes
35 Vh Ranch - CA 0636-AU21-GENL BB H 1 19:32:05.24 19.112 00:06:21 Yes
36 Ganus Family Loft - IN 0406-AU21-GFL BB H 1 19:32:11.69 19.090 00:06:28 Yes
37 Triple T Loft - TX 5341-AU21-ARPU BC H 2 19:32:30.76 19.024 00:06:47 Yes
38 Missiles Castro - AZ 3176-AU21-FVC BB H 1 19:33:19.80 18.858 00:07:36 Yes
39 Milestone Loft - CA 0112-AU21-SD BB H 1 19:33:33.66 18.811 00:07:50 Yes
40 Andy Owen - GA 0123-AU21-AOWE BC H 1 19:33:34.17 18.810 00:07:50 Yes
41 Perez Family Loft - MN 0206-AU21-PFL RC H 1 19:35:47.52 18.373 00:10:04 Yes
42 Jojos International - TX 6166-AU21-GJOJ BB H 4 19:35:53.89 18.353 00:10:10 Yes
43 Martinez Family Loft - KS 1010-AU21-MART SLAT H 1 19:35:54.52 18.351 00:10:11 Yes
44 Tejano 2 - RN 2154-AU21-TEJA PENC H 1 19:35:55.81 18.347 00:10:12 Yes
45 3 Marie 1 Thomas - IL 10573-AU21-AA Huffman BB H 1 19:35:56.48 18.345 00:10:12 Yes
46 Hylek Race Team - IN 4908-AU21-VITA Artemis CHOL H 2 19:35:58.23 18.339 00:10:14 Yes
47 Highland Loft - NY 22732-AU21-AA BB H 1 19:36:01.28 18.329 00:10:17 Yes
48 Shi Loft - PA 2231-IF21-ERIE BB H 1 19:36:02.45 18.326 00:10:18 Yes
49 Pleasant Task Farm - PA 0265-AU21-PTF 13900 x 13829 BB H 1 19:36:02.92 18.324 00:10:19 Yes
50 Ganus Family Loft - IN 0072-AU21-GFL BBWF H 2 19:36:03.80 18.321 00:10:20 Yes
51 Powerwagon Loft - OH 0651-AU21-AA Air Express Wagon BB H 1 19:36:04.22 18.320 00:10:20 Yes
52 Dan & Greg Coury - AZ 1213-AU21-PEGA DCWF H 2 19:36:04.47 18.319 00:10:21 Yes
53 Kelley & Buckner - TX 0147-AU21-DENT BC H 1 19:36:04.88 18.318 00:10:21 Yes
53 Tx Lin Loft - TX 0078-AU21-TXLI 1088 GRZZ H 1 19:36:04.89 18.318 00:10:21 Yes
55 Shi Loft - PA 2223-IF21-ERIE BB H 2 19:36:05.30 18.316 00:10:22 Yes
55 Hassan And Smith Syndicate - CA 0171-AU21-MESO BB H 3 19:36:05.31 18.316 00:10:22 Yes
57 Xiao Loft - WI 0965-AU21-RAC BBWF H 1 19:36:05.82 18.315 00:10:22 Yes
58 Han Lu - TX 76908-AU21-ARPU BBWF H 1 19:36:05.98 18.314 00:10:22 Yes
58 Morningside Racing Loft - TX 1429-AU21-MRSL 7077 (348) X 8163 (1148) BBWF H 1 19:36:06.03 18.314 00:10:22 Yes
60 GreatWall - MS 0838-AU21-JIMM BB H 1 19:36:06.59 18.312 00:10:23 Yes
60 Best Loft - IL 0011-AU21-BEST BBWF H 1 19:36:06.70 18.312 00:10:23 Yes
62 Tx Lin Loft - TX 0405-AU21-DALL BB H 2 19:36:07.22 18.310 00:10:23 Yes
63 Larry CaÑonga - JA 0278-AU21-NW El Choco Roll CHOC H 1 19:36:07.76 18.309 00:10:24 Yes
64 Windy lane Loft - TX 1058-AU21-DALL BC H 1 19:36:08.84 18.305 00:10:25 Yes
64 Pete Villa And Tristan Goodwin - MD 0728-AU21-CAP Jacob x Ken’s Favorite BC H 1 19:36:08.96 18.305 00:10:25 Yes
64 Flying D Loft - TX 1340-AU21-FLYD Foys 29800 / Flyd 187 BB H 1 19:36:08.97 18.305 00:10:25 Yes
67 Vh Ranch - CA 0741-AU21-GONZ SLAT H 2 19:36:09.44 18.303 00:10:26 Yes
68 Cicio's Loft - IL 0078-AU21-CICI BB H 1 19:36:10.11 18.301 00:10:26 Yes
68 John Gutierrez - NM 21106-AU21-GUTZ BB H 4 19:36:10.13 18.301 00:10:26 Yes
68 Jojos International - TX 6176-AU21-GJOJ BC H 5 19:36:10.25 18.301 00:10:26 Yes
71 Bionic Loft - LA 0153-AU21-CAJU BBWF H 1 19:36:10.76 18.299 00:10:27 Yes
71 SouthernLegacyLoft - TX 6127-AU21-GJOJ BC H 2 19:36:10.88 18.299 00:10:27 Yes
73 Jojos International - TX 6198-AU21-GJOJ BB H 6 19:36:11.23 18.298 00:10:27 Yes
73 Yendez Loft - TX 0714-AU21-YEND YENDEZ 714 BB H 2 19:36:11.26 18.298 00:10:27 Yes
75 Windy lane Loft - TX 1062-AU21-DALL BC H 2 19:36:11.81 18.296 00:10:28 Yes
75 Mcav Loft - DE 9116-AU21-MCVA BB H 1 19:36:11.82 18.296 00:10:28 Yes
77 De La O/ Saenz/ Lopez Loft - CA 1169-AU21-COOK BB H 1 19:36:12.03 18.295 00:10:28 Yes
77 Alfredo Duniesky - TX 4404-AU21-HRPC BB H 1 19:36:12.04 18.295 00:10:28 Yes
79 Jojos International - TX 6194-AU21-GJOJ BB H 7 19:36:12.44 18.294 00:10:28 Yes
79 Charito - TX 1322-AU21-DALL BB H 1 19:36:12.45 18.294 00:10:28 Yes
79 Andy El Original - TX 4418-AU21-HRPC BBWF H 1 19:36:12.47 18.294 00:10:28 Yes
82 Cartel Morelia - TX 1094-AU21-BIEC BB H 1 19:36:13.38 18.291 00:10:29 Yes
83 3 Marie 1 Thomas - IL 10577-AU21-AA Stowkoski BC H 2 19:36:13.80 18.290 00:10:30 Yes
84 Pantoja Loft - CA 0324-AU21-LAPU BC H 1 19:36:14.35 18.288 00:10:30 Yes
85 Kingo A2a - TX 1726-AU21-JEED La Bebe BB H 1 19:36:14.52 18.287 00:10:31 Yes
86 Liu s Loft - MO 0535-AU21-BAIZ BC H 1 19:36:14.93 18.286 00:10:31 Yes
87 SouthernLegacyLoft - TX 2200-AU21-SLL BC H 3 19:36:15.10 18.285 00:10:31 Yes
87 Jayleen & Abrien Loft - TX 0023-MX21-RUIZ BB H 1 19:36:15.12 18.285 00:10:31 Yes
87 Hrnl - FL 3010-AU21-JEED BB H 1 19:36:15.14 18.285 00:10:31 Yes
90 John Gutierrez - NM 21093-AU21-GUTZ DC H 5 19:36:15.56 18.284 00:10:32 Yes
90 Mcav Loft - DE 9112-AU21-MCVA BB H 2 19:36:15.57 18.284 00:10:32 Yes
90 Medina Loft - TX 0039-AU21-MEDI DC H 1 19:36:15.60 18.284 00:10:32 Yes
93 Ramirez Loft - TX 1386-AU21-DALL Valentino BC H 1 19:36:16.41 18.281 00:10:33 Yes
93 Eastern Pearl Loft - VA 0947-AU21-EPL 大❤️🈚️量947 BB H 1 19:36:16.43 18.281 00:10:33 Yes
93 Bizblood And Genlla - CA 3277-AU21-FVC BCWF H 2 19:36:16.64 18.281 00:10:33 Yes
96 Golden State Syndicate - CA 0454-AU21-PROU BB H 1 19:36:16.68 18.280 00:10:33 Yes
97 PNWC - ID 1072-AU21-PNWC “PAIR 18” BC H 1 19:36:17.36 18.278 00:10:33 Yes
97 Aimhigh Loft - CA 0606-AU21-FMT CHIMA 00061444 ¥ BB H 1 19:36:17.38 18.278 00:10:33 Yes
99 Larry CaÑonga - JA 3290-AU21-METR RC 0 2 19:36:17.70 18.277 00:10:34 Yes
99 Liberty Lofts - TX 0434-AU21-WWC BB H 1 19:36:17.73 18.277 00:10:34 Yes

There are 787 bird records

Note: These Race Results are unofficial and subject to change until verified by the Race Committee and declared final.